This is the latest recevied weather packets stored in our database for station/object N0NPO. If no packets are shown the sender has not sent any weather packets the latest 10 day(s).
| Time | Temp. | Humidity | Pressure | Rain* | Wind** | Luminosity | Snow |
|---|---|---|---|---|---|---|---|
| 1777465713 | 1.67° C | 1% | 1022.6 hPa | 0 mm | - | 45 W/m² | - |
| 1777465410 | 1.11° C | 1% | 1022.6 hPa | 0 mm | - | 39 W/m² | - |
| 1777465108 | 1.11° C | 1% | 1022.7 hPa | 0 mm | - | 34 W/m² | - |
| 1777464804 | 0.56° C | 1% | 1022.6 hPa | 0 mm | - | 22 W/m² | - |
| 1777464499 | 0.56° C | 1% | 1022.7 hPa | 0 mm | - | 17 W/m² | - |
| 1777464196 | 0.56° C | 1% | 1022.8 hPa | 0 mm | - | 15 W/m² | - |
| 1777463896 | 0.56° C | 1% | 1022.7 hPa | 0 mm | - | 13 W/m² | - |
| 1777463592 | 0.56° C | 1% | 1022.8 hPa | 0 mm | - | 10 W/m² | - |
| 1777463286 | 1.11° C | 1% | 1022.7 hPa | 0 mm | - | 6 W/m² | - |
| 1777462983 | 1.11° C | 1% | 1022.7 hPa | 0 mm | - | 4 W/m² | - |
| 1777462679 | 1.11° C | 1% | 1022.6 hPa | 0 mm | - | 1 W/m² | - |
| 1777462374 | 1.67° C | 1% | 1022.4 hPa | 0 mm | - | 0 W/m² | - |
| 1777462070 | 1.11° C | 1% | 1022.7 hPa | 0 mm | - | 0 W/m² | - |
| 1777461768 | 1.11° C | 1% | 1022.6 hPa | 0 mm | - | 0 W/m² | - |
| 1777461463 | 1.11° C | 1% | 1022.6 hPa | 0 mm | - | 0 W/m² | - |
| 1777461160 | 1.11° C | 1% | 1022.8 hPa | 0 mm | - | 0 W/m² | - |
| 1777460855 | 1.11° C | 1% | 1022.7 hPa | 0 mm | - | 0 W/m² | - |
| 1777460551 | 1.11° C | 1% | 1022.8 hPa | 0 mm | - | 0 W/m² | - |
| 1777460246 | 1.11° C | 1% | 1022.8 hPa | 0 mm | - | 0 W/m² | - |
| 1777459944 | 1.11° C | 1% | 1022.7 hPa | 0 mm | - | 0 W/m² | - |
| 1777459641 | 1.11° C | 1% | 1022.7 hPa | 0 mm | - | 0 W/m² | - |
| 1777459337 | 1.11° C | 1% | 1022.8 hPa | 0 mm | - | 0 W/m² | - |
| 1777459036 | 1.11° C | 1% | 1022.7 hPa | 0 mm | - | 0 W/m² | - |
| 1777458733 | 1.11° C | 1% | 1022.6 hPa | 0 mm | - | 0 W/m² | - |
| 1777458428 | 1.11° C | 1% | 1022.6 hPa | 0 mm | - | 0 W/m² | - |
* Rain latest hour (hover to see other rain measurements)
** Current wind speed in m/s (hover to see current wind gust speed)